logo tempoitalia

Diretta Meteo Wahpeton, Stati Uniti (USA)lunedì 31 agosto ore 01:35

Mappa
Sereno 21 °C Sereno 24 Ore: T.min 19 T.max 30
Ponente Nord Km/h 0 Punto di rugiada: 21 °C Umidità: 100% Visibilità: 13 Km
Il sole sorge alle: 06:46 Il sole tramonta alle: 20:07
31 Agosto 2026 01:35 tempo osservato: Sereno Sereno 21 100 1006 vento: Nord N 0
31 Agosto 2026 01:15 tempo osservato: Sereno Sereno 22 100 1006 vento: Nord N 0
31 Agosto 2026 00:55 tempo osservato: Sereno Sereno 22 100 1005 vento: Nord SO 7.4
31 Agosto 2026 00:35 tempo osservato: Sereno Sereno 22 100 1005 vento: Nord SO 9.3
31 Agosto 2026 00:15 tempo osservato: Sereno Sereno 22 100 1005 vento: Nord N 5.5
30 Agosto 2026 23:55 tempo osservato: Sereno Sereno 23 100 1005 vento: Nord N 5.5
30 Agosto 2026 23:35 tempo osservato: Sereno Sereno 23 100 1005 vento: Nord E/SE 9.3
30 Agosto 2026 23:15 tempo osservato: Sereno Sereno 23 100 1004 vento: Nord E/SE 14.8
30 Agosto 2026 22:55 tempo osservato: Sereno Sereno 24 100 1005 vento: Nord E/SE 14.8
30 Agosto 2026 22:35 tempo osservato: Sereno Sereno 24 100 1005 vento: Nord E 14.8
30 Agosto 2026 22:15 tempo osservato: Sereno Sereno 25 100 1006 vento: Nord E 13
30 Agosto 2026 21:55 tempo osservato: Sereno Sereno 25 100 1006 vento: Nord N 11.1
30 Agosto 2026 21:35 tempo osservato: Sereno Sereno 25 100 1005 vento: Nord E/SE 14.8
30 Agosto 2026 21:15 tempo osservato: Sereno Sereno 25 100 1006 vento: Nord E 7.4
30 Agosto 2026 20:55 tempo osservato: Sereno Sereno 25 100 1005 vento: Nord E 7.4
30 Agosto 2026 20:35 tempo osservato: Sereno Sereno 25 100 1004 vento: Nord SE 11.1
30 Agosto 2026 20:15 tempo osservato: Sereno Sereno 25 100 1004 vento: Nord E/SE 14.8
30 Agosto 2026 19:55 tempo osservato: Sereno Sereno 26 100 1004 vento: Nord SE 13
30 Agosto 2026 19:35 tempo osservato: Sereno Sereno 26 100 1004 vento: Nord SE 16.7
30 Agosto 2026 19:15 tempo osservato: Sereno Sereno 27 88 1005 vento: Nord SE 16.7
30 Agosto 2026 18:55 tempo osservato: Sereno Sereno 27 88 1005 vento: Nord SE 16.7
30 Agosto 2026 18:35 tempo osservato: Sereno Sereno 27 83 1005 vento: Nord SE 16.7
30 Agosto 2026 18:15 tempo osservato: Sereno Sereno 28 74 1005 vento: Nord S/SE 25.9
30 Agosto 2026 17:55 tempo osservato: Sereno Sereno 28 74 1005 vento: Nord S/SE 24
30 Agosto 2026 17:35 tempo osservato: Sereno Sereno 29 70 1005 vento: Nord S/SE 20.3
30 Agosto 2026 17:15 tempo osservato: Sereno Sereno 29 66 1005 vento: Nord SE 22.2
30 Agosto 2026 16:55 tempo osservato: Sereno Sereno 28 69 1005 vento: Nord S/SE 18.5
30 Agosto 2026 16:35 tempo osservato: Sereno Sereno 28 69 1005 vento: Nord SE 16.7
30 Agosto 2026 16:15 tempo osservato: Sereno Sereno 28 69 1005 vento: Nord S/SE 20.3
30 Agosto 2026 15:55 tempo osservato: Sereno Sereno 28 69 1006 vento: Nord SE 20.3
30 Agosto 2026 15:35 tempo osservato: Sereno Sereno 28 69 1006 vento: Nord SE 14.8
30 Agosto 2026 15:15 tempo osservato: Sereno Sereno 29 62 1006 vento: Nord E/SE 18.5
30 Agosto 2026 14:55 tempo osservato: Sereno Sereno 29 62 1006 vento: Nord E/SE 22.2
30 Agosto 2026 14:35 tempo osservato: Sereno Sereno 30 58 1006 vento: Nord SE 18.5
30 Agosto 2026 14:15 tempo osservato: Sereno Sereno 29 66 1006 vento: Nord SE 16.7
30 Agosto 2026 13:55 tempo osservato: Sereno Sereno 28 69 1007 vento: Nord SE 20.3
30 Agosto 2026 13:35 tempo osservato: Sereno Sereno 28 69 1007 vento: Nord E/SE 22.2
30 Agosto 2026 13:15 tempo osservato: Sereno Sereno 28 69 1007 vento: Nord SE 22.2
30 Agosto 2026 12:55 tempo osservato: Sereno Sereno 27 74 1007 vento: Nord E/SE 18.5
30 Agosto 2026 12:35 tempo osservato: Sereno Sereno 28 74 1007 vento: Nord E/SE 18.5
30 Agosto 2026 12:15 tempo osservato: Sereno Sereno 26 94 1007 vento: Nord E/SE 20.3
30 Agosto 2026 11:55 tempo osservato: Sereno Sereno 26 100 1007 vento: Nord E/SE 22.2
30 Agosto 2026 11:35 tempo osservato: Sereno Sereno 26 100 1007 vento: Nord E 18.5
30 Agosto 2026 11:15 tempo osservato: Sereno Sereno 25 100 1007 vento: Nord E 16.7
30 Agosto 2026 10:55 tempo osservato: Sereno Sereno 25 100 1007 vento: Nord E/SE 14.8
30 Agosto 2026 10:35 tempo osservato: Sereno Sereno 25 100 1007 vento: Nord E 16.7
30 Agosto 2026 10:15 tempo osservato: Sereno Sereno 24 100 1007 vento: Nord E 16.7
30 Agosto 2026 09:55 tempo osservato: Sereno Sereno 23 100 1008 vento: Nord E 14.8
30 Agosto 2026 09:35 tempo osservato: Sereno Sereno 22 100 1008 vento: Nord E 14.8
30 Agosto 2026 09:15 tempo osservato: Sereno Sereno 21 100 1008 vento: Nord E/SE 16.7
30 Agosto 2026 08:55 tempo osservato: Sereno Sereno 21 100 1008 vento: Nord E/SE 11.1
30 Agosto 2026 08:35 tempo osservato: Sereno Sereno 21 100 1008 vento: Nord E 13
30 Agosto 2026 08:15 tempo osservato: Sereno Sereno 20 0 1008 vento: Nord E/SE 7.4
30 Agosto 2026 07:55 tempo osservato: Sereno Sereno 20 100 1008 vento: Nord N 5.5
30 Agosto 2026 07:35 tempo osservato: Sereno Sereno 19 100 1008 vento: Nord E/NE 7.4
30 Agosto 2026 07:15 tempo osservato: Sereno Sereno 19 100 1008 vento: Nord E/NE 7.4
30 Agosto 2026 06:55 tempo osservato: Sereno Sereno 20 100 1008 vento: Nord E 9.3
30 Agosto 2026 06:35 tempo osservato: Sereno Sereno 20 100 1008 vento: Nord E 9.3
30 Agosto 2026 06:15 tempo osservato: Sereno Sereno 20 100 1007 vento: Nord E 13
30 Agosto 2026 05:55 tempo osservato: Sereno Sereno 20 100 1007 vento: Nord E 13
30 Agosto 2026 05:35 tempo osservato: Sereno Sereno 20 100 1006 vento: Nord E 14.8
30 Agosto 2026 05:15 tempo osservato: Sereno Sereno 20 100 1007 vento: Nord E/SE 14.8
30 Agosto 2026 04:55 tempo osservato: Sereno Sereno 20 100 1007 vento: Nord E 14.8
30 Agosto 2026 04:35 tempo osservato: Pioggia Pioggia 20 100 1008 vento: Nord E 9.3
30 Agosto 2026 04:15 tempo osservato: Sereno Sereno 20 100 1009 vento: Nord N 5.5
30 Agosto 2026 03:55 tempo osservato: Sereno Sereno 20 100 1008 vento: Nord E 13
30 Agosto 2026 03:35 tempo osservato: Sereno Sereno 20 100 1008 vento: Nord E 9.3
30 Agosto 2026 03:15 tempo osservato: Sereno Sereno 20 100 1008 vento: Nord E 13
30 Agosto 2026 02:55 tempo osservato: Sereno Sereno 20 100 1008 vento: Nord E/SE 11.1
30 Agosto 2026 02:35 tempo osservato: Sereno Sereno 20 100 1007 vento: Nord E 16.7
30 Agosto 2026 02:15 tempo osservato: Sereno Sereno 20 100 1008 vento: Nord E 13
30 Agosto 2026 01:55 tempo osservato: Sereno Sereno 20 100 1008 vento: Nord E 11.1
30 Agosto 2026 01:35 tempo osservato: Sereno Sereno 20 100 1009 vento: Nord E/SE 9.3